QPF
0.00 0.01 0.01 0.01 0.02 0.01 0.03 0.03 0.02 0.03 0.04 0.03 0.03 0.03 0.04 0.05 0.05 0.04 0.04 0.04 0.03 0.05 0.07 0.08 0.07 0.14 0.19 0.08 0.05 0.05 0.04 0.03 0.03 0.03 0.03 0.04 0.03 0.03 0.02 0.01 0.01 0.02 0.03
0.01 0.01 0.01 0.01 0.02 0.02 0.03 0.03 0.03 0.03 0.04 0.04 0.04 0.03 0.04 0.05 0.05 0.04 0.03 0.03 0.04 0.05 0.07 0.08 0.07 0.16 0.27 0.13 0.07 0.04 0.03 0.03 0.02 0.02 0.01 0.01 0.02 0.03 0.02 0.01 0.01 0.02 0.02
0.01 0.01 0.01 0.01 0.03 0.04 0.05 0.06 0.05 0.04 0.04 0.04 0.04 0.04 0.04 0.06 0.05 0.04 0.03 0.02 0.04 0.05 0.04 0.06 0.07 0.10 0.24 0.26 0.14 0.05 0.03 0.02 0.01 0.01 0.01 0.02 0.02 0.04 0.03 0.02 0.02 0.02 0.02
0.01 0.00 0.00 0.02 0.03 0.04 0.06 0.05 0.04 0.03 0.04 0.04 0.05 0.04 0.04 0.06 0.05 0.04 0.03 0.03 0.03 0.03 0.02 0.03 0.04 0.06 0.13 0.17 0.12 0.06 0.03 0.02 0.01 0.01 0.01 0.03 0.03 0.04 0.03 0.03 0.02 0.01 0.01
0.01 0.01 0.01 0.01 0.02 0.03 0.04 0.04 0.03 0.04 0.04 0.05 0.06 0.06 0.05 0.05 0.04 0.04 0.03 0.03 0.03 0.03 0.02 0.02 0.03 0.04 0.06 0.08 0.08 0.05 0.03 0.02 0.01 0.01 0.01 0.03 0.04 0.05 0.03 0.03 0.02 0.02 0.02
0.01 0.01 0.01 0.01 0.02 0.03 0.03 0.04 0.04 0.04 0.05 0.06 0.07 0.08 0.07 0.06 0.05 0.04 0.03 0.03 0.02 0.03 0.02 0.02 0.03 0.05 0.04 0.04 0.04 0.03 0.02 0.01 0.01 0.02 0.03 0.02 0.04 0.05 0.04 0.02 0.02 0.02 0.02
0.01 0.01 0.01 0.02 0.03 0.03 0.04 0.05 0.04 0.04 0.04 0.05 0.07 0.09 0.08 0.06 0.05 0.04 0.03 0.02 0.02 0.02 0.02 0.02 0.02 0.03 0.04 0.05 0.04 0.02 0.01 0.01 0.01 0.02 0.04 0.04 0.04 0.04 0.04 0.03 0.02 0.02 0.01
0.01 0.01 0.01 0.02 0.03 0.04 0.05 0.05 0.05 0.07 0.07 0.06 0.07 0.08 0.08 0.06 0.03 0.03 0.03 0.03 0.02 0.02 0.03 0.03 0.04 0.03 0.04 0.05 0.04 0.02 0.01 0.01 0.01 0.02 0.03 0.03 0.04 0.05 0.05 0.04 0.03 0.03 0.02
0.01 0.01 0.01 0.01 0.02 0.03 0.04 0.04 0.04 0.06 0.10 0.09 0.08 0.07 0.08 0.06 0.04 0.03 0.04 0.04 0.04 0.04 0.03 0.03 0.06 0.05 0.06 0.05 0.04 0.02 0.01 0.01 0.01 0.01 0.02 0.02 0.04 0.06 0.06 0.05 0.04 0.03 0.02
0.01 0.01 0.01 0.02 0.02 0.02 0.02 0.03 0.04 0.05 0.06 0.09 0.08 0.09 0.09 0.07 0.05 0.04 0.04 0.05 0.05 0.05 0.03 0.02 0.04 0.06 0.07 0.06 0.04 0.03 0.02 0.01 0.01 0.02 0.03 0.04 0.05 0.06 0.06 0.04 0.04 0.04 0.03
0.01 0.02 0.02 0.02 0.02 0.02 0.02 0.02 0.04 0.06 0.08 0.08 0.08 0.07 0.06 0.05 0.03 0.03 0.03 0.03 0.04 0.04 0.03 0.01 0.02 0.03 0.05 0.06 0.04 0.02 0.02 0.01 0.01 0.02 0.03 0.05 0.07 0.07 0.06 0.05 0.04 0.04 0.03
0.02 0.02 0.02 0.02 0.03 0.03 0.04 0.04 0.03 0.04 0.08 0.10 0.12 0.12 0.08 0.05 0.04 0.03 0.03 0.03 0.03 0.02 0.02 0.02 0.01 0.02 0.04 0.06 0.06 0.03 0.02 0.01 0.01 0.01 0.02 0.03 0.05 0.06 0.06 0.06 0.05 0.04 0.03
0.01 0.02 0.02 0.03 0.04 0.04 0.04 0.05 0.05 0.04 0.05 0.07 0.09 0.11 0.10 0.09 0.06 0.05 0.05 0.04 0.04 0.03 0.02 0.02 0.02 0.03 0.03 0.05 0.06 0.04 0.02 0.02 0.01 0.01 0.01 0.02 0.03 0.04 0.04 0.05 0.04 0.03 0.03
0.01 0.01 0.02 0.03 0.04 0.05 0.04 0.05 0.05 0.05 0.05 0.05 0.06 0.08 0.09 0.07 0.06 0.05 0.05 0.04 0.04 0.03 0.03 0.02 0.02 0.04 0.04 0.04 0.05 0.05 0.03 0.02 0.01 0.01 0.02 0.03 0.03 0.03 0.03 0.04 0.04 0.04 0.04
0.01 0.01 0.02 0.03 0.04 0.05 0.05 0.05 0.05 0.05 0.05 0.05 0.05 0.06 0.09 0.08 0.06 0.05 0.05 0.05 0.04 0.03 0.03 0.03 0.02 0.03 0.05 0.05 0.05 0.05 0.05 0.02 0.01 0.01 0.01 0.02 0.03 0.04 0.04 0.05 0.05 0.07 0.08
0.01 0.01 0.02 0.03 0.04 0.06 0.06 0.05 0.05 0.05 0.05 0.06 0.06 0.05 0.06 0.07 0.07 0.06 0.05 0.04 0.04 0.04 0.04 0.04 0.03 0.03 0.04 0.05 0.05 0.06 0.05 0.03 0.01 0.01 0.01 0.01 0.02 0.03 0.04 0.06 0.09 0.12 0.14
0.01 0.01 0.02 0.03 0.04 0.05 0.06 0.06 0.06 0.05 0.05 0.05 0.05 0.05 0.05 0.05 0.06 0.07 0.06 0.04 0.04 0.04 0.04 0.04 0.04 0.04 0.04 0.05 0.06 0.06 0.06 0.04 0.02 0.01 0.01 0.01 0.01 0.02 0.04 0.07 0.10 0.13 0.16
0.01 0.01 0.01 0.02 0.02 0.03 0.04 0.04 0.05 0.05 0.05 0.04 0.04 0.04 0.04 0.05 0.05 0.05 0.05 0.05 0.05 0.04 0.04 0.03 0.03 0.04 0.04 0.05 0.06 0.06 0.07 0.05 0.03 0.01 0.01 0.01 0.01 0.01 0.03 0.07 0.08 0.11 0.15
0.01 0.01 0.01 0.02 0.02 0.02 0.02 0.03 0.03 0.04 0.05 0.05 0.03 0.03 0.03 0.04 0.04 0.05 0.05 0.04 0.05 0.05 0.04 0.03 0.03 0.03 0.04 0.04 0.06 0.06 0.07 0.06 0.04 0.02 0.01 0.01 0.01 0.02 0.02 0.03 0.06 0.09 0.15
0.01 0.01 0.01 0.02 0.02 0.02 0.02 0.02 0.02 0.03 0.05 0.06 0.06 0.04 0.03 0.03 0.03 0.03 0.04 0.04 0.04 0.04 0.05 0.05 0.03 0.03 0.03 0.04 0.06 0.07 0.07 0.07 0.05 0.03 0.01 0.01 0.01 0.01 0.02 0.03 0.04 0.07 0.10
0.02 0.02 0.01 0.02 0.01 0.02 0.02 0.02 0.02 0.02 0.03 0.06 0.06 0.05 0.04 0.03 0.02 0.02 0.03 0.03 0.03 0.03 0.03 0.04 0.04 0.04 0.04 0.04 0.06 0.08 0.09 0.09 0.06 0.04 0.02 0.02 0.01 0.01 0.01 0.03 0.04 0.06 0.08
0.03 0.03 0.03 0.02 0.02 0.02 0.02 0.02 0.01 0.02 0.01 0.02 0.04 0.04 0.04 0.03 0.02 0.02 0.01 0.02 0.03 0.03 0.03 0.04 0.04 0.05 0.05 0.05 0.06 0.07 0.09 0.11 0.09 0.05 0.03 0.02 0.02 0.02 0.02 0.02 0.03 0.05 0.06
0.04 0.04 0.04 0.03 0.04 0.03 0.03 0.02 0.02 0.02 0.02 0.01 0.01 0.02 0.03 0.03 0.03 0.02 0.01 0.01 0.02 0.03 0.03 0.03 0.04 0.05 0.05 0.05 0.06 0.07 0.07 0.07 0.08 0.07 0.04 0.03 0.03 0.03 0.02 0.03 0.03 0.04 0.05
0.05 0.04 0.03 0.03 0.03 0.04 0.04 0.04 0.03 0.02 0.02 0.02 0.01 0.01 0.02 0.02 0.02 0.02 0.01 0.01 0.01 0.02 0.02 0.03 0.04 0.05 0.07 0.07 0.06 0.06 0.06 0.05 0.05 0.06 0.06 0.04 0.04 0.04 0.04 0.03 0.04 0.04 0.05
0.05 0.04 0.03 0.03 0.03 0.03 0.04 0.04 0.05 0.03 0.02 0.02 0.02 0.01 0.01 0.01 0.01 0.01 0.01 0.01 0.01 0.01 0.01 0.02 0.04 0.06 0.07 0.07 0.07 0.06 0.06 0.05 0.04 0.03 0.04 0.05 0.05 0.05 0.04 0.04 0.04 0.04 0.04
0.03 0.04 0.03 0.03 0.03 0.03 0.03 0.03 0.06 0.07 0.05 0.02 0.02 0.01 0.01 0.01 0.01 0.01 0.01 0.01 0.01 0.01 0.01 0.01 0.02 0.03 0.07 0.09 0.10 0.09 0.08 0.07 0.05 0.04 0.03 0.03 0.04 0.04 0.04 0.04 0.04 0.04 0.04
MSLP
1020.47 1020.52 1020.40 1020.15 1019.85 1019.56 1019.32 1019.18 1019.12 1019.15 1019.23 1019.35 1019.48 1019.61 1019.75 1019.89 1020.03 1020.17 1020.29 1020.39 1020.45 1020.47 1020.47 1020.44 1020.40 1020.37 1020.34 1020.32 1020.29 1020.23 1020.13 1019.98 1019.78 1019.56 1019.33 1019.12 1018.93 1018.77 1018.64 1018.51 1018.37 1018.20 1018.01
1020.85 1020.73 1020.45 1020.07 1019.68 1019.33 1019.10 1018.98 1018.98 1019.08 1019.23 1019.41 1019.60 1019.79 1019.99 1020.18 1020.38 1020.57 1020.74 1020.87 1020.96 1021.01 1021.01 1021.00 1020.97 1020.96 1020.95 1020.94 1020.91 1020.85 1020.73 1020.56 1020.34 1020.10 1019.86 1019.65 1019.48 1019.35 1019.25 1019.15 1019.03 1018.88 1018.67
1021.30 1021.01 1020.56 1020.03 1019.53 1019.13 1018.88 1018.79 1018.84 1018.99 1019.20 1019.44 1019.69 1019.93 1020.17 1020.41 1020.66 1020.89 1021.10 1021.27 1021.39 1021.46 1021.49 1021.49 1021.49 1021.49 1021.50 1021.50 1021.48 1021.41 1021.27 1021.07 1020.82 1020.55 1020.29 1020.07 1019.91 1019.80 1019.73 1019.67 1019.58 1019.45 1019.25
1021.83 1021.39 1020.78 1020.12 1019.52 1019.07 1018.79 1018.70 1018.77 1018.95 1019.20 1019.47 1019.75 1020.02 1020.30 1020.58 1020.86 1021.13 1021.37 1021.58 1021.73 1021.82 1021.88 1021.91 1021.93 1021.96 1021.99 1022.01 1021.99 1021.91 1021.76 1021.53 1021.25 1020.94 1020.66 1020.42 1020.25 1020.16 1020.11 1020.08 1020.02 1019.92 1019.75
1022.44 1021.88 1021.16 1020.41 1019.74 1019.23 1018.93 1018.82 1018.88 1019.06 1019.31 1019.58 1019.86 1020.13 1020.41 1020.71 1021.01 1021.30 1021.58 1021.81 1021.99 1022.12 1022.21 1022.27 1022.33 1022.38 1022.44 1022.48 1022.47 1022.40 1022.23 1021.98 1021.67 1021.33 1021.01 1020.75 1020.57 1020.46 1020.42 1020.41 1020.38 1020.30 1020.17
1023.10 1022.49 1021.73 1020.93 1020.23 1019.70 1019.37 1019.23 1019.26 1019.41 1019.61 1019.84 1020.09 1020.33 1020.60 1020.89 1021.19 1021.50 1021.79 1022.05 1022.26 1022.41 1022.53 1022.62 1022.71 1022.80 1022.89 1022.95 1022.96 1022.89 1022.72 1022.46 1022.13 1021.77 1021.42 1021.12 1020.90 1020.78 1020.72 1020.70 1020.69 1020.64 1020.54
1023.79 1023.19 1022.45 1021.68 1021.00 1020.47 1020.14 1019.98 1019.96 1020.05 1020.18 1020.35 1020.53 1020.73 1020.95 1021.22 1021.51 1021.82 1022.12 1022.39 1022.61 1022.79 1022.92 1023.04 1023.15 1023.26 1023.36 1023.44 1023.46 1023.41 1023.26 1023.00 1022.66 1022.28 1021.90 1021.57 1021.31 1021.14 1021.05 1021.01 1020.99 1020.96 1020.89
1024.45 1023.94 1023.29 1022.62 1022.01 1021.53 1021.21 1021.04 1020.98 1021.00 1021.06 1021.15 1021.25 1021.38 1021.56 1021.78 1022.05 1022.34 1022.63 1022.90 1023.13 1023.31 1023.45 1023.56 1023.67 1023.78 1023.89 1023.97 1024.01 1023.97 1023.83 1023.59 1023.26 1022.87 1022.47 1022.10 1021.80 1021.57 1021.42 1021.34 1021.29 1021.25 1021.21
1025.07 1024.70 1024.20 1023.66 1023.17 1022.79 1022.51 1022.35 1022.27 1022.23 1022.23 1022.24 1022.27 1022.34 1022.45 1022.63 1022.86 1023.11 1023.38 1023.62 1023.83 1023.99 1024.11 1024.20 1024.29 1024.38 1024.46 1024.54 1024.58 1024.54 1024.42 1024.20 1023.89 1023.52 1023.11 1022.71 1022.36 1022.07 1021.85 1021.70 1021.59 1021.53 1021.48
1025.64 1025.42 1025.09 1024.73 1024.39 1024.12 1023.92 1023.79 1023.70 1023.64 1023.59 1023.55 1023.52 1023.54 1023.60 1023.72 1023.90 1024.11 1024.32 1024.52 1024.68 1024.79 1024.87 1024.92 1024.96 1025.01 1025.06 1025.11 1025.14 1025.11 1025.00 1024.81 1024.53 1024.18 1023.77 1023.36 1022.96 1022.60 1022.30 1022.06 1021.88 1021.76 1021.68
1026.17 1026.10 1025.95 1025.75 1025.57 1025.42 1025.30 1025.22 1025.16 1025.10 1025.03 1024.97 1024.91 1024.89 1024.90 1024.97 1025.08 1025.22 1025.37 1025.50 1025.59 1025.65 1025.66 1025.66 1025.65 1025.64 1025.65 1025.66 1025.66 1025.63 1025.54 1025.38 1025.13 1024.81 1024.43 1024.00 1023.57 1023.15 1022.76 1022.42 1022.15 1021.95 1021.81
1026.68 1026.74 1026.73 1026.68 1026.63 1026.58 1026.55 1026.53 1026.50 1026.47 1026.42 1026.35 1026.29 1026.25 1026.23 1026.24 1026.29 1026.34 1026.40 1026.45 1026.46 1026.44 1026.39 1026.33 1026.27 1026.21 1026.18 1026.16 1026.14 1026.10 1026.02 1025.89 1025.69 1025.41 1025.05 1024.64 1024.18 1023.70 1023.23 1022.79 1022.42 1022.11 1021.90
1027.21 1027.35 1027.45 1027.50 1027.54 1027.57 1027.59 1027.62 1027.63 1027.63 1027.62 1027.58 1027.54 1027.50 1027.45 1027.41 1027.38 1027.35 1027.31 1027.26 1027.19 1027.10 1027.00 1026.89 1026.79 1026.70 1026.64 1026.59 1026.56 1026.52 1026.46 1026.36 1026.20 1025.97 1025.65 1025.25 1024.78 1024.27 1023.72 1023.19 1022.71 1022.30 1021.98
1027.77 1027.96 1028.11 1028.21 1028.29 1028.35 1028.40 1028.45 1028.50 1028.53 1028.56 1028.57 1028.56 1028.52 1028.46 1028.38 1028.27 1028.15 1028.01 1027.87 1027.72 1027.57 1027.43 1027.31 1027.19 1027.10 1027.03 1026.98 1026.94 1026.91 1026.87 1026.81 1026.69 1026.51 1026.23 1025.87 1025.41 1024.87 1024.27 1023.66 1023.08 1022.56 1022.15
1028.36 1028.57 1028.73 1028.84 1028.91 1028.95 1028.99 1029.04 1029.09 1029.16 1029.23 1029.29 1029.32 1029.30 1029.23 1029.10 1028.93 1028.72 1028.50 1028.27 1028.06 1027.88 1027.72 1027.60 1027.50 1027.43 1027.38 1027.34 1027.31 1027.30 1027.28 1027.24 1027.17 1027.03 1026.81 1026.49 1026.05 1025.51 1024.90 1024.23 1023.57 1022.96 1022.45
1028.98 1029.18 1029.33 1029.40 1029.42 1029.42 1029.41 1029.43 1029.47 1029.55 1029.66 1029.76 1029.82 1029.83 1029.76 1029.60 1029.38 1029.10 1028.81 1028.52 1028.26 1028.06 1027.91 1027.81 1027.75 1027.72 1027.70 1027.69 1027.68 1027.68 1027.67 1027.66 1027.62 1027.53 1027.37 1027.10 1026.71 1026.20 1025.59 1024.91 1024.21 1023.54 1022.95
1029.61 1029.79 1029.90 1029.93 1029.89 1029.82 1029.74 1029.70 1029.72 1029.80 1029.92 1030.05 1030.16 1030.19 1030.13 1029.96 1029.70 1029.38 1029.02 1028.69 1028.41 1028.20 1028.07 1028.00 1027.99 1028.00 1028.02 1028.03 1028.04 1028.05 1028.05 1028.05 1028.03 1027.98 1027.87 1027.66 1027.34 1026.89 1026.32 1025.66 1024.96 1024.26 1023.63
1030.19 1030.36 1030.45 1030.43 1030.33 1030.18 1030.04 1029.95 1029.92 1029.98 1030.11 1030.27 1030.40 1030.46 1030.41 1030.25 1029.97 1029.62 1029.24 1028.88 1028.59 1028.38 1028.27 1028.23 1028.25 1028.30 1028.34 1028.37 1028.38 1028.37 1028.37 1028.36 1028.36 1028.34 1028.28 1028.14 1027.89 1027.52 1027.03 1026.43 1025.77 1025.09 1024.44
1030.73 1030.89 1030.95 1030.90 1030.76 1030.56 1030.36 1030.21 1030.15 1030.18 1030.30 1030.47 1030.62 1030.70 1030.68 1030.53 1030.26 1029.91 1029.52 1029.15 1028.85 1028.64 1028.54 1028.52 1028.55 1028.60 1028.65 1028.67 1028.66 1028.63 1028.60 1028.58 1028.57 1028.57 1028.54 1028.47 1028.31 1028.04 1027.64 1027.14 1026.54 1025.91 1025.29
1031.20 1031.35 1031.41 1031.35 1031.19 1030.96 1030.72 1030.53 1030.43 1030.43 1030.53 1030.69 1030.85 1030.96 1030.96 1030.83 1030.59 1030.25 1029.87 1029.50 1029.20 1028.99 1028.88 1028.86 1028.88 1028.92 1028.94 1028.93 1028.88 1028.80 1028.73 1028.67 1028.65 1028.65 1028.65 1028.64 1028.56 1028.39 1028.10 1027.71 1027.22 1026.66 1026.08
1031.62 1031.77 1031.83 1031.77 1031.61 1031.38 1031.13 1030.91 1030.77 1030.74 1030.81 1030.95 1031.11 1031.22 1031.25 1031.15 1030.94 1030.62 1030.27 1029.92 1029.62 1029.40 1029.27 1029.22 1029.21 1029.21 1029.19 1029.13 1029.03 1028.90 1028.77 1028.67 1028.62 1028.61 1028.63 1028.66 1028.65 1028.58 1028.40 1028.12 1027.74 1027.27 1026.75
1032.02 1032.15 1032.22 1032.18 1032.04 1031.83 1031.57 1031.34 1031.17 1031.10 1031.13 1031.23 1031.37 1031.48 1031.51 1031.44 1031.26 1030.99 1030.67 1030.34 1030.05 1029.82 1029.67 1029.58 1029.53 1029.48 1029.40 1029.29 1029.13 1028.95 1028.78 1028.63 1028.54 1028.52 1028.54 1028.60 1028.64 1028.64 1028.56 1028.38 1028.10 1027.72 1027.26
1032.45 1032.55 1032.61 1032.60 1032.49 1032.29 1032.05 1031.80 1031.60 1031.48 1031.46 1031.51 1031.60 1031.68 1031.72 1031.67 1031.52 1031.29 1031.00 1030.70 1030.42 1030.19 1030.02 1029.90 1029.80 1029.70 1029.58 1029.42 1029.23 1029.01 1028.80 1028.62 1028.50 1028.45 1028.47 1028.53 1028.61 1028.66 1028.64 1028.54 1028.34 1028.03 1027.64
1032.93 1032.99 1033.04 1033.04 1032.95 1032.78 1032.54 1032.28 1032.05 1031.87 1031.77 1031.75 1031.78 1031.82 1031.84 1031.80 1031.68 1031.49 1031.24 1030.97 1030.71 1030.48 1030.29 1030.14 1030.02 1029.89 1029.74 1029.56 1029.35 1029.12 1028.89 1028.69 1028.56 1028.49 1028.49 1028.54 1028.62 1028.69 1028.71 1028.66 1028.52 1028.27 1027.93
1033.50 1033.51 1033.53 1033.53 1033.45 1033.29 1033.05 1032.77 1032.49 1032.24 1032.06 1031.96 1031.92 1031.90 1031.89 1031.84 1031.74 1031.57 1031.36 1031.12 1030.88 1030.66 1030.47 1030.31 1030.18 1030.04 1029.89 1029.71 1029.51 1029.29 1029.07 1028.88 1028.73 1028.65 1028.63 1028.66 1028.73 1028.79 1028.83 1028.81 1028.70 1028.49 1028.19
1034.15 1034.10 1034.10 1034.07 1033.99 1033.83 1033.57 1033.26 1032.92 1032.61 1032.34 1032.15 1032.02 1031.94 1031.89 1031.82 1031.72 1031.57 1031.39 1031.18 1030.96 1030.75 1030.57 1030.41 1030.27 1030.15 1030.01 1029.86 1029.69 1029.50 1029.31 1029.14 1028.99 1028.90 1028.86 1028.87 1028.92 1028.97 1029.00 1028.99 1028.91 1028.73 1028.46
Thickness
5697 5696 5694 5696 5697 5698 5699 5700 5701 5702 5703 5704 5705 5706 5707 5707 5708 5709 5710 5711 5712 5713 5714 5715 5716 5716 5718 5719 5719 5720 5719 5718 5719 5719 5720 5720 5721 5722 5722 5723 5725 5725 5724
5693 5692 5691 5692 5694 5695 5696 5697 5697 5698 5699 5700 5701 5702 5702 5703 5704 5705 5706 5707 5707 5708 5709 5711 5712 5712 5713 5714 5715 5715 5715 5714 5715 5715 5716 5717 5717 5718 5718 5719 5720 5720 5720
5688 5688 5688 5688 5689 5691 5692 5692 5693 5694 5695 5695 5696 5697 5698 5698 5699 5700 5701 5702 5702 5704 5705 5706 5707 5708 5708 5709 5709 5709 5709 5709 5710 5711 5713 5714 5713 5714 5714 5715 5716 5716 5716
5682 5683 5684 5684 5685 5686 5687 5688 5689 5690 5690 5691 5692 5693 5693 5694 5694 5695 5695 5696 5697 5698 5699 5701 5702 5703 5703 5703 5703 5704 5704 5705 5706 5708 5710 5710 5710 5709 5710 5710 5711 5712 5712
5676 5678 5678 5679 5681 5682 5683 5684 5684 5685 5685 5686 5687 5687 5688 5689 5689 5690 5690 5691 5692 5693 5694 5695 5696 5697 5698 5698 5698 5698 5699 5700 5702 5704 5705 5705 5705 5704 5705 5706 5706 5707 5707
5670 5671 5672 5673 5675 5676 5678 5679 5679 5680 5680 5681 5681 5682 5683 5683 5684 5684 5685 5685 5686 5687 5688 5689 5690 5691 5692 5693 5693 5694 5694 5695 5698 5700 5700 5700 5700 5700 5700 5701 5702 5702 5702
5663 5664 5665 5666 5668 5669 5671 5672 5674 5674 5675 5675 5676 5676 5677 5677 5678 5679 5679 5680 5680 5681 5682 5683 5684 5685 5686 5687 5687 5688 5689 5690 5693 5694 5695 5695 5695 5695 5696 5696 5697 5697 5697
5655 5656 5657 5658 5660 5662 5664 5666 5667 5668 5669 5669 5669 5670 5671 5671 5672 5673 5673 5674 5674 5675 5675 5676 5678 5679 5680 5681 5681 5682 5683 5685 5687 5688 5689 5689 5688 5689 5690 5690 5691 5691 5691
5646 5648 5650 5651 5653 5654 5656 5658 5659 5661 5662 5662 5663 5663 5664 5665 5666 5667 5667 5667 5668 5668 5669 5670 5671 5672 5674 5675 5675 5676 5677 5679 5682 5682 5682 5682 5682 5683 5684 5685 5685 5685 5686
5638 5640 5642 5644 5646 5647 5649 5649 5651 5652 5654 5655 5655 5655 5656 5657 5658 5659 5660 5660 5661 5661 5662 5663 5664 5665 5667 5668 5668 5669 5671 5672 5675 5675 5676 5675 5676 5677 5678 5678 5679 5679 5680
5630 5631 5633 5635 5637 5639 5641 5642 5643 5644 5645 5647 5648 5648 5648 5649 5651 5652 5651 5652 5653 5654 5655 5655 5656 5657 5659 5659 5661 5663 5664 5666 5667 5668 5668 5668 5669 5670 5671 5671 5672 5673 5673
5622 5623 5624 5627 5629 5631 5632 5634 5635 5636 5637 5638 5639 5640 5640 5641 5642 5643 5643 5644 5645 5646 5647 5647 5648 5650 5651 5652 5653 5655 5658 5659 5660 5660 5660 5660 5661 5663 5664 5664 5665 5665 5666
5614 5614 5616 5618 5620 5622 5624 5625 5626 5627 5628 5629 5630 5631 5632 5633 5633 5634 5635 5636 5637 5637 5639 5639 5641 5642 5643 5644 5646 5648 5650 5651 5652 5653 5652 5652 5654 5655 5656 5657 5658 5658 5659
5607 5607 5608 5609 5611 5613 5615 5616 5618 5618 5619 5620 5621 5622 5623 5624 5624 5625 5626 5627 5628 5629 5630 5631 5632 5634 5635 5636 5638 5639 5641 5642 5644 5644 5644 5644 5646 5647 5648 5649 5650 5651 5651
5599 5600 5600 5601 5603 5605 5606 5607 5608 5609 5610 5611 5611 5612 5613 5614 5614 5615 5617 5617 5618 5619 5621 5622 5623 5624 5626 5627 5629 5630 5632 5633 5634 5635 5635 5635 5637 5638 5640 5641 5643 5644 5644
5592 5592 5592 5593 5594 5596 5597 5598 5598 5599 5600 5601 5602 5602 5603 5604 5605 5606 5606 5607 5608 5609 5610 5612 5613 5614 5616 5617 5619 5620 5622 5624 5625 5626 5626 5627 5628 5629 5631 5633 5634 5636 5636
5584 5584 5584 5585 5585 5586 5587 5588 5588 5588 5590 5590 5591 5591 5593 5594 5595 5596 5597 5597 5597 5598 5600 5601 5602 5604 5605 5607 5608 5610 5612 5614 5615 5616 5616 5618 5618 5619 5621 5623 5624 5626 5626
5575 5575 5575 5576 5576 5576 5577 5577 5578 5579 5579 5579 5579 5580 5581 5582 5584 5585 5586 5586 5586 5587 5589 5590 5591 5593 5594 5596 5598 5600 5601 5603 5605 5605 5606 5607 5608 5610 5611 5612 5613 5615 5616
5567 5567 5567 5567 5567 5567 5567 5567 5567 5567 5568 5568 5569 5569 5569 5570 5572 5573 5574 5574 5575 5576 5577 5578 5580 5582 5583 5584 5586 5588 5590 5592 5593 5594 5595 5596 5597 5598 5600 5601 5602 5603 5605
5558 5558 5558 5559 5558 5557 5557 5557 5557 5556 5557 5557 5557 5557 5558 5559 5560 5561 5562 5562 5563 5564 5565 5566 5567 5569 5571 5572 5574 5576 5578 5580 5582 5583 5584 5585 5586 5587 5588 5590 5591 5592 5593
5549 5549 5550 5550 5549 5548 5549 5549 5548 5548 5547 5546 5546 5546 5546 5547 5547 5548 5549 5549 5550 5552 5553 5554 5555 5556 5557 5560 5563 5565 5567 5569 5571 5571 5572 5573 5574 5575 5576 5577 5578 5580 5581
5540 5540 5541 5541 5540 5539 5539 5538 5538 5537 5536 5535 5534 5534 5533 5534 5534 5535 5536 5536 5537 5539 5540 5541 5543 5544 5545 5547 5551 5555 5559 5560 5560 5560 5561 5561 5562 5563 5564 5565 5566 5567 5568
5530 5530 5530 5530 5529 5529 5528 5526 5526 5525 5524 5523 5523 5522 5521 5521 5521 5522 5523 5524 5525 5526 5528 5529 5530 5532 5534 5534 5537 5542 5547 5553 5550 5550 5550 5550 5550 5551 5551 5552 5553 5554 5555
5519 5518 5518 5518 5518 5518 5517 5516 5516 5516 5515 5514 5512 5511 5510 5509 5509 5510 5510 5511 5512 5513 5515 5516 5517 5520 5522 5524 5524 5526 5529 5534 5538 5540 5539 5539 5538 5539 5539 5539 5540 5541 5542
5507 5507 5506 5506 5506 5506 5505 5505 5505 5505 5504 5502 5501 5500 5499 5498 5498 5498 5498 5498 5500 5501 5503 5504 5504 5506 5509 5511 5513 5514 5515 5517 5522 5528 5530 5528 5527 5527 5526 5527 5528 5529 5529
5495 5494 5494 5494 5494 5494 5493 5493 5493 5493 5492 5491 5490 5489 5488 5488 5486 5486 5486 5487 5488 5489 5491 5492 5492 5494 5496 5498 5501 5503 5504 5506 5509 5513 5516 5517 5516 5516 5514 5514 5515 5516 5516